This is the latest recevied weather packets stored in our database for station/object AC0MR. If no packets are shown the sender has not sent any weather packets the latest 10 day(s).
| Time | Temp. | Humidity | Pressure | Rain* | Wind** | Luminosity | Snow |
|---|---|---|---|---|---|---|---|
| 1777643719 | 6.11° C | 69% | 1016.8 hPa | 0 mm | - | 197 W/m² | - |
| 1777643119 | 6.11° C | 72% | 1016.9 hPa | 0 mm | - | 142 W/m² | - |
| 1777642519 | 5.56° C | 73% | 1016.9 hPa | 0 mm | - | 123 W/m² | - |
| 1777641919 | 5.56° C | 75% | 1016.7 hPa | 0 mm | - | 156 W/m² | - |
| 1777641319 | 5° C | 77% | 1017 hPa | 0 mm | - | 114 W/m² | - |
| 1777640719 | 5° C | 79% | 1017 hPa | 0 mm | - | 145 W/m² | - |
| 1777640119 | 5° C | 79% | 1017 hPa | 0 mm | - | 62 W/m² | - |
| 1777639519 | 4.44° C | 80% | 1017 hPa | 0 mm | - | 71 W/m² | - |
| 1777638919 | 4.44° C | 79% | 1016.9 hPa | 0 mm | - | 91 W/m² | - |
| 1777638319 | 4.44° C | 79% | 1016.8 hPa | 0 mm | - | 59 W/m² | - |
| 1777637719 | 4.44° C | 79% | 1016.7 hPa | 0 mm | - | 52 W/m² | - |
| 1777637119 | 4.44° C | 79% | 1016.7 hPa | 0 mm | - | 40 W/m² | - |
| 1777636519 | 3.89° C | 78% | 1016.7 hPa | 0 mm | - | 29 W/m² | - |
| 1777635919 | 3.89° C | 78% | 1016.6 hPa | 0 mm | - | 16 W/m² | - |
| 1777635319 | 3.89° C | 78% | 1016.5 hPa | 0 mm | - | 9 W/m² | - |
| 1777634719 | 3.89° C | 78% | 1016.4 hPa | 0 mm | - | 3 W/m² | - |
| 1777634119 | 3.89° C | 78% | 1016.4 hPa | 0 mm | - | 0 W/m² | - |
| 1777633519 | 3.89° C | 78% | 1016.3 hPa | 0 mm | - | 0 W/m² | - |
| 1777632919 | 3.89° C | 78% | 1016.4 hPa | 0 mm | - | 0 W/m² | - |
| 1777632319 | 3.89° C | 77% | 1016.5 hPa | 0 mm | - | 0 W/m² | - |
| 1777631719 | 3.89° C | 77% | 1016.6 hPa | 0 mm | - | 0 W/m² | - |
| 1777631119 | 3.89° C | 77% | 1016.6 hPa | 0 mm | - | 0 W/m² | - |
| 1777630519 | 3.89° C | 77% | 1016.5 hPa | 0 mm | - | 0 W/m² | - |
| 1777629919 | 3.89° C | 78% | 1016.6 hPa | 0 mm | - | 0 W/m² | - |
| 1777629319 | 3.33° C | 78% | 1016.6 hPa | 0 mm | - | 0 W/m² | - |
* Rain latest hour (hover to see other rain measurements)
** Current wind speed in m/s (hover to see current wind gust speed)